Terminal Aerodrome Forecast
Issued by NWS Portland, OR

Home | Current Version | Previous Version | Text Only | Print | Product List | Glossary On
Versions: 1 2 3 4 5 6 7 8 9 10 11 12 13 14 15 16 17 18 19 20 21 22 23 24 25 26 27 28 29 30 31 32 33 34 35 36 37 38 39 40 41 42 43 44 45 46 47 48
000
FTUS46 KPQR 211725
TAFAST
TAF
KAST 211725Z 2118/2218 10003KT P6SM OVC025
     FM212000 25006KT P6SM SCT025 BKN070
     FM220700 18003KT P6SM OVC020
     FM221200 16003KT P6SM BKN015=

USA.gov is the U.S. government's official web portal to all federal, state and local government web resources and services.